Вернуться в каталог

CARTOSAT 2D

АктивенНаукаSSO
NORAD 41948·PAYLOAD·🇮🇳 India

Запущен Feb 15, 2017 с Satish Dhawan Space Centre

Loading…

Ближайшие Пролёты (ближайшие 24 часа)

TLE

СвежийSource: Space-Track

Эпоха: Sep 14, 2026, 22:19 UTC

1 41948U 17008A   26257.92993856  .00001730  00000-0  85136-4 0  9993
2 41948  97.4013 315.5133 0003358 297.0678  63.0214 15.19318465531201

Отслеживайте CARTOSAT 2D в реальном времени с AllMySat

Download on the App Store